Location: Saratoga Springs
(43.0831°N, 73.7850°W)
Time: 18:26:15
(UTC-04:00)

Vanguard 2 - Pass Details

Date: 19 April 2024
Orbit: 553 x 2914 km, 32.9° (Epoch: 19 May)

Event Time Altitude Azimuth Distance (km) Brightness Sun altitude
Rises 09:23:42 0° 278° (W) 6,689 11.8 34.8°
Reaches altitude 10° 09:29:39 10° 267° (W) 5,476 11.5 35.8°
Maximum altitude 09:40:37 24° 223° (SW) 3,824 11.1 37.7°
Drops below altitude 10° 09:49:05 10° 176° (S) 4,102 11.7 39.1°
Sets 09:52:45 0° 162° (SSE) 4,723 12.0 39.7°
